Flag for U.S.A. Weather past 2 weeks in Bryan – College Station, Texas, U.S.A.

Now
78 °F

Clear.


Feels Like: 80 °F
Forecast: 70 / 87 °F
Wind: 6 mph from Southeast

Location: Easterwood Field

Current Time: Sep 1, 2015 at 9:41:47 PM

Latest Report: Sep 1, 2015 at 8:53 PM


Visibility: N/A

Pressure: 30.01 "Hg

Humidity: 74%

Dew point: 69 °F

Location of Bryan – College StationLocation

Historic Weather in Bryan – College Station — Graph

°F

Bryan – College Station temperature yesterday

Maximum temperature yesterday: 90 °F (at 1:53 PM)
Minimum temperature yesterday: 72 °F (at 6:53 AM)
Average temperature yesterday: 81 °F

Past Weeks' High & Low Weather Summary

 TemperatureHumidityPressure
High99 °F (Aug 18, 3:53 PM)94% (Aug 18, 6:53 AM)30.12 "Hg (Aug 18, 6:53 AM)
Low70 °F (Aug 27, 6:53 AM)34% (Aug 18, 3:53 PM)29.74 "Hg (Aug 18, 5:53 PM)
Average82 °F69%29.97 "Hg
* Reported Aug 17 7:53 PM — Sep 1 7:53 PM, Bryan – College Station, Weather by CustomWeather, © 2015

Note: Actual official high and low records may vary slightly from our data, if they occured in-between our weather recording intervals... More about our weather records

Advertising

Bryan – College Station weather history for previous 24 hours

 ConditionsComfort  
Time TempWeatherWind HumidityBarometerVisibility
7:53 PM
Tue, Sep 1
81 °FSunny.10 mph65%29.99 "HgN/A
6:53 PM83 °FSunny.15 mph61%29.98 "HgN/A
5:53 PM86 °FSunny.17 mph53%29.98 "HgN/A
3:53 PM89 °FPassing clouds.18 mph50%29.98 "Hg10 mi
2:53 PM86 °FSunny.9 mph57%30.00 "Hg10 mi
1:53 PM84 °FPassing clouds.6 mph61%30.02 "Hg10 mi
12:53 PM88 °FScattered clouds.15 mph55%30.01 "Hg10 mi
11:53 AM85 °FBroken clouds.8 mph59%30.02 "Hg10 mi
10:53 AM83 °FBroken clouds.5 mph70%30.04 "Hg10 mi
9:53 AM82 °FSunny.6 mph74%30.03 "Hg10 mi
8:53 AM78 °FSunny.5 mph79%30.04 "Hg10 mi
7:53 AM73 °FClear.5 mph90%30.01 "Hg10 mi
6:53 AM72 °FClear.3 mph91%30.00 "Hg10 mi
5:53 AM73 °FClear.5 mph90%29.99 "Hg10 mi
4:53 AM73 °FClear.No wind90%29.99 "Hg10 mi
3:53 AM74 °FClear.No wind91%30.01 "Hg10 mi
2:53 AM74 °FClear.3 mph88%30.02 "Hg10 mi
1:53 AM75 °FClear.3 mph85%30.02 "Hg10 mi
12:53 AM76 °FClear.7 mph82%30.02 "Hg10 mi
11:53 PM
Mon, Aug 31
76 °FClear.6 mph82%30.01 "Hg10 mi
9:53 PM80 °FClear.8 mph74%29.97 "Hg10 mi
Weather by CustomWeather, © 2015

See weather overviewHow to use our weather pages